EJA809 KRDU-KDCA

Flight info

Callsign EJA809
Flight time 0h 38m
Altitude 33000
Route BEXGO5 BOUSY WAVES CAPSS4
Aircraft C700/M-SBDGHM1RWXY/LB2

Departure

Time 2026-05-06 23:55
Airport Raleigh-Durham International Airport (KRDU)

Arrival

Time 2026-05-07 00:33
Airport Ronald Reagan Washington National Airport (KDCA)
Time Latitude Longitude Altitude Speed Heading
2026-05-06 23:43 35.87996 -78.78429 410 ft 0 kts 43°
2026-05-06 23:51 35.87999 -78.78416 410 ft 5 kts 87°
2026-05-06 23:52 35.87964 -78.78373 411 ft 10 kts 136°
2026-05-06 23:52 35.87938 -78.78290 411 ft 12 kts 68°
2026-05-06 23:52 35.88009 -78.78209 411 ft 16 kts 44°
2026-05-06 23:52 35.88083 -78.78097 408 ft 13 kts 55°
2026-05-06 23:53 35.88052 -78.78068 410 ft 10 kts 204°
2026-05-06 23:53 35.87986 -78.78055 412 ft 11 kts 135°
2026-05-06 23:53 35.87965 -78.78026 414 ft 0 kts 137°
2026-05-06 23:54 35.87932 -78.77991 418 ft 11 kts 143°
2026-05-06 23:54 35.87863 -78.78011 419 ft 12 kts 226°
2026-05-06 23:54 35.87604 -78.78329 416 ft 108 kts 225°
2026-05-06 23:54 35.86876 -78.79226 622 ft 185 kts 226°
2026-05-06 23:55 35.85871 -78.80508 1396 ft 229 kts 227°
2026-05-06 23:55 35.84760 -78.81954 2062 ft 235 kts 226°
2026-05-06 23:55 35.83620 -78.83327 3379 ft 226 kts 225°
2026-05-06 23:55 35.82518 -78.84702 4912 ft 227 kts 236°
2026-05-06 23:56 35.81982 -78.86586 5950 ft 251 kts 263°
2026-05-06 23:56 35.82266 -78.88698 6009 ft 255 kts 291°
2026-05-06 23:56 35.83331 -78.90468 6018 ft 261 kts 309°
2026-05-06 23:56 35.84911 -78.91616 6002 ft 274 kts 338°
2026-05-06 23:57 35.86845 -78.91729 6003 ft 288 kts
2026-05-06 23:57 35.88669 -78.90618 5996 ft 300 kts 36°
2026-05-06 23:57 35.90145 -78.88807 6932 ft 303 kts 43°
2026-05-06 23:57 35.91608 -78.86890 8768 ft 304 kts 43°
2026-05-06 23:58 35.93087 -78.85011 10239 ft 316 kts 41°
2026-05-06 23:58 35.94653 -78.83049 11631 ft 328 kts 41°
2026-05-06 23:58 35.96281 -78.80993 12001 ft 335 kts 41°
2026-05-06 23:58 35.97888 -78.78935 12003 ft 331 kts 42°
2026-05-06 23:59 35.99490 -78.76898 12006 ft 329 kts 41°
2026-05-06 23:59 36.01105 -78.74858 12649 ft 331 kts 41°
2026-05-06 23:59 36.02690 -78.72837 14428 ft 328 kts 40°
2026-05-06 23:59 36.04312 -78.70781 15687 ft 339 kts 40°
2026-05-07 00:00 36.05977 -78.68667 17019 ft 346 kts 39°
2026-05-07 00:00 36.07679 -78.66500 18289 ft 355 kts 39°
2026-05-07 00:00 36.09420 -78.64281 19363 ft 364 kts 39°
2026-05-07 00:00 36.10594 -78.62783 20093 ft 369 kts 39°
2026-05-07 00:01 36.12996 -78.59716 21531 ft 379 kts 39°
2026-05-07 00:01 36.14852 -78.57349 22566 ft 387 kts 39°
2026-05-07 00:01 36.16747 -78.54929 23578 ft 394 kts 39°
2026-05-07 00:01 36.18671 -78.52466 24450 ft 401 kts 40°
2026-05-07 00:02 36.20628 -78.49961 25364 ft 407 kts 40°
2026-05-07 00:02 36.22617 -78.47415 26264 ft 414 kts 40°
2026-05-07 00:02 36.24637 -78.44827 27108 ft 421 kts 40°
2026-05-07 00:02 36.26689 -78.42200 27943 ft 427 kts 40°
2026-05-07 00:03 36.28953 -78.39829 28752 ft 426 kts 30°
2026-05-07 00:03 36.31362 -78.37643 28963 ft 440 kts 30°
2026-05-07 00:03 36.36283 -78.33004 28966 ft 464 kts 31°
2026-05-07 00:04 36.38941 -78.30559 28966 ft 486 kts 31°
2026-05-07 00:04 36.41718 -78.27984 28961 ft 510 kts 32°
2026-05-07 00:04 36.47487 -78.22558 28975 ft 530 kts 32°
2026-05-07 00:05 36.53404 -78.17033 28994 ft 533 kts 32°
2026-05-07 00:05 36.59311 -78.11430 29016 ft 533 kts 32°
2026-05-07 00:06 36.65195 -78.05891 29019 ft 534 kts 32°
2026-05-07 00:06 36.71115 -78.00274 29024 ft 534 kts 32°
2026-05-07 00:07 36.77035 -77.94664 29014 ft 534 kts 32°
2026-05-07 00:07 36.83132 -77.89410 28966 ft 527 kts 22°
2026-05-07 00:08 36.89730 -77.85517 28959 ft 524 kts 19°
2026-05-07 00:08 36.96302 -77.81656 28935 ft 525 kts 19°
2026-05-07 00:09 37.02929 -77.77782 28934 ft 526 kts 19°
2026-05-07 00:09 37.09561 -77.73881 28934 ft 527 kts 18°
2026-05-07 00:10 37.16215 -77.69968 28943 ft 528 kts 18°
2026-05-07 00:10 37.22881 -77.66039 28481 ft 532 kts 18°
2026-05-07 00:11 37.26184 -77.64082 27778 ft 519 kts 18°
2026-05-07 00:11 37.29428 -77.62157 27101 ft 510 kts 18°
2026-05-07 00:11 37.32619 -77.60277 26425 ft 504 kts 17°
2026-05-07 00:11 37.35781 -77.58410 25763 ft 499 kts 17°
2026-05-07 00:12 37.38901 -77.56558 25107 ft 493 kts 17°
2026-05-07 00:12 37.41893 -77.54769 24479 ft 470 kts 17°
2026-05-07 00:12 37.44818 -77.53022 23871 ft 448 kts 16°
2026-05-07 00:12 37.47542 -77.51412 23263 ft 429 kts 15°
2026-05-07 00:13 37.50196 -77.49843 22689 ft 415 kts 15°
2026-05-07 00:13 37.52791 -77.48305 22145 ft 410 kts 15°
2026-05-07 00:13 37.55377 -77.46769 21589 ft 410 kts 15°
2026-05-07 00:13 37.57958 -77.45258 21047 ft 405 kts 13°
2026-05-07 00:14 37.60581 -77.44204 20918 ft 387 kts
2026-05-07 00:14 37.63172 -77.43416 20918 ft 385 kts
2026-05-07 00:14 37.65759 -77.42608 20907 ft 387 kts
2026-05-07 00:14 37.68418 -77.41803 20663 ft 391 kts
2026-05-07 00:15 37.71044 -77.40985 20672 ft 391 kts
2026-05-07 00:15 37.73699 -77.40162 20551 ft 395 kts
2026-05-07 00:15 37.76362 -77.39342 20102 ft 393 kts
2026-05-07 00:15 37.79008 -77.38520 19588 ft 389 kts
2026-05-07 00:16 37.81628 -77.37709 19005 ft 384 kts
2026-05-07 00:16 37.83350 -77.37177 18601 ft 381 kts
2026-05-07 00:16 37.85907 -77.36387 17927 ft 376 kts
2026-05-07 00:16 37.88438 -77.35603 17195 ft 372 kts
2026-05-07 00:17 37.90953 -77.34825 16483 ft 369 kts
2026-05-07 00:17 37.93439 -77.34063 15796 ft 366 kts
2026-05-07 00:17 37.95906 -77.33306 15128 ft 364 kts
2026-05-07 00:17 37.98354 -77.32551 14706 ft 357 kts
2026-05-07 00:18 38.00760 -77.31807 14485 ft 357 kts
2026-05-07 00:18 38.03197 -77.31064 14257 ft 360 kts
2026-05-07 00:18 38.05629 -77.30312 14019 ft 360 kts
2026-05-07 00:18 38.08062 -77.29556 13779 ft 359 kts
2026-05-07 00:19 38.10487 -77.28797 13522 ft 359 kts
2026-05-07 00:19 38.12909 -77.28031 13270 ft 358 kts
2026-05-07 00:19 38.15319 -77.27273 13031 ft 356 kts
2026-05-07 00:19 38.17725 -77.26519 12791 ft 356 kts
2026-05-07 00:20 38.20126 -77.25761 12554 ft 355 kts
2026-05-07 00:20 38.22473 -77.24878 12354 ft 355 kts 11°
2026-05-07 00:20 38.24834 -77.23969 12174 ft 355 kts 11°
2026-05-07 00:20 38.27206 -77.23080 11965 ft 354 kts 10°
2026-05-07 00:21 38.29569 -77.22196 11738 ft 354 kts 11°
2026-05-07 00:21 38.31931 -77.21300 11507 ft 354 kts 11°
2026-05-07 00:21 38.34286 -77.20403 11264 ft 352 kts 11°
2026-05-07 00:21 38.36631 -77.19514 11032 ft 351 kts 11°
2026-05-07 00:22 38.38960 -77.18628 10997 ft 348 kts 11°
2026-05-07 00:22 38.41289 -77.17725 10998 ft 350 kts 11°
2026-05-07 00:22 38.43621 -77.16820 11000 ft 350 kts 11°
2026-05-07 00:22 38.45957 -77.15921 10989 ft 351 kts 11°
2026-05-07 00:23 38.48305 -77.15017 10861 ft 353 kts 11°
2026-05-07 00:23 38.50644 -77.14110 10670 ft 351 kts 11°
2026-05-07 00:23 38.52978 -77.13204 10456 ft 344 kts 11°
2026-05-07 00:23 38.55165 -77.12350 10243 ft 323 kts 11°
2026-05-07 00:24 38.57270 -77.11534 10006 ft 310 kts 11°
2026-05-07 00:24 38.59315 -77.10752 9965 ft 304 kts 11°
2026-05-07 00:24 38.61363 -77.09973 9949 ft 310 kts 11°
2026-05-07 00:24 38.63437 -77.09175 9865 ft 315 kts 11°
2026-05-07 00:25 38.65553 -77.08355 9470 ft 316 kts 11°
2026-05-07 00:25 38.67635 -77.07546 9016 ft 310 kts 11°
2026-05-07 00:25 38.69678 -77.07002 8564 ft 298 kts 358°
2026-05-07 00:25 38.71721 -77.06847 8117 ft 292 kts 358°
2026-05-07 00:26 38.73749 -77.06625 7673 ft 289 kts 358°
2026-05-07 00:26 38.75714 -77.06745 7234 ft 278 kts 343°
2026-05-07 00:26 38.77542 -77.07391 7005 ft 265 kts 332°
2026-05-07 00:26 38.79165 -77.08447 7001 ft 262 kts 322°
2026-05-07 00:27 38.80711 -77.09747 6752 ft 271 kts 322°
2026-05-07 00:27 38.82303 -77.11029 6256 ft 265 kts 323°
2026-05-07 00:27 38.83737 -77.12422 6000 ft 251 kts 311°
2026-05-07 00:27 38.84970 -77.13990 5710 ft 246 kts 311°
2026-05-07 00:28 38.86183 -77.15467 5406 ft 231 kts 312°
2026-05-07 00:28 38.87299 -77.16844 5099 ft 218 kts 311°
2026-05-07 00:28 38.88394 -77.18218 4794 ft 220 kts 311°
2026-05-07 00:28 38.89476 -77.19568 4491 ft 219 kts 311°
2026-05-07 00:29 38.90768 -77.20591 4160 ft 227 kts 343°
2026-05-07 00:29 38.92331 -77.20345 3833 ft 231 kts 20°
2026-05-07 00:30 38.94903 -77.15807 2997 ft 206 kts 87°
2026-05-07 00:30 38.94709 -77.14040 2988 ft 199 kts 112°
2026-05-07 00:30 38.94017 -77.12566 2936 ft 189 kts 135°
2026-05-07 00:30 38.93011 -77.11400 2346 ft 203 kts 142°
2026-05-07 00:31 38.92003 -77.10232 1770 ft 185 kts 141°
2026-05-07 00:31 38.91068 -77.09186 1366 ft 173 kts 143°
2026-05-07 00:31 38.90221 -77.08153 1097 ft 167 kts 134°
2026-05-07 00:31 38.89494 -77.07018 938 ft 166 kts 129°
2026-05-07 00:32 38.88805 -77.05930 793 ft 150 kts 135°
2026-05-07 00:32 38.88151 -77.05064 572 ft 122 kts 142°
2026-05-07 00:32 38.87524 -77.04452 305 ft 108 kts 148°
2026-05-07 00:32 38.86823 -77.04022 162 ft 112 kts 165°
2026-05-07 00:33 38.86064 -77.03872 48 ft 111 kts 176°
2026-05-07 00:33 38.85358 -77.03804 14 ft 85 kts 174°
2026-05-07 00:33 38.84938 -77.03763 14 ft 28 kts 186°
2026-05-07 00:33 38.84879 -77.03860 12 ft 8 kts 264°
2026-05-07 00:34 38.84878 -77.03868 12 ft 0 kts 264°
2026-05-07 00:34 38.84878 -77.03874 12 ft 6 kts 261°
2026-05-07 00:35 38.84804 -77.03882 14 ft 14 kts 174°
2026-05-07 00:35 38.84708 -77.03921 16 ft 16 kts 208°
2026-05-07 00:35 38.84597 -77.03989 17 ft 15 kts 210°
2026-05-07 00:35 38.84544 -77.04086 21 ft 14 kts 255°
2026-05-07 00:36 38.84532 -77.04227 18 ft 18 kts 272°
2026-05-07 00:36 38.84593 -77.04366 17 ft 20 kts 327°
2026-05-07 00:36 38.84678 -77.04455 18 ft 11 kts 303°
2026-05-07 00:36 38.84683 -77.04475 20 ft 0 kts 270°
2026-05-07 00:37 38.84685 -77.04490 19 ft 0 kts 320°